Flag for U.S.A. Weather past 2 weeks in Seattle, Washington, U.S.A.

Now
54 °F

Scattered clouds.


Feels Like: 54 °F
Forecast: 45 / 51 °F
Wind: 3 mph from Northwest

Location: Seattle Boeing Field

Current Time: Jan 28, 2015 at 2:38:55 PM

Latest Report: Jan 28, 2015 at 1:53 PM


Visibility: 10 mi

Pressure: 30.37 "Hg

Humidity: 67%

Dew point: 43 °F

Location of SeattleLocation

Historic Weather in Seattle — Graph

°F

Seattle temperature yesterday

Maximum temperature yesterday: 55 °F (at 5:53 PM)
Minimum temperature yesterday: 50 °F (at 12:53 AM)
Average temperature yesterday: 52 °F

Past Weeks' High & Low Weather Summary

 TemperatureHumidityPressure
High65 °F (Jan 25, 2:53 PM)94% (Jan 26, 5:01 AM)30.46 "Hg (Jan 26, 5:01 AM)
Low33 °F (Jan 21, 6:53 AM)52% (Jan 26, 2:53 PM)29.60 "Hg (Jan 17, 11:53 PM)
Average49 °F78%30.19 "Hg
* Reported Jan 13 12:53 PM — Jan 28 12:53 PM, Seattle, Weather by CustomWeather, © 2014

Note: Actual official high and low records may vary slightly from our data, if they occured in-between our weather recording intervals... More about our weather records

Advertising

Seattle weather history for previous 24 hours

 ConditionsComfort  
Time TempWeatherWind HumidityBarometerVisibility
12:53 PM
Jan 28
53 °FBroken clouds.5 mph72%30.38 "Hg10 mi
11:53 AM53 °FBroken clouds.5 mph72%30.39 "Hg10 mi
10:53 AM51 °FMore clouds than sun.3 mph74%30.40 "Hg10 mi
9:53 AM51 °FBroken clouds.No wind74%30.39 "Hg10 mi
8:53 AM49 °FBroken clouds.No wind77%30.37 "Hg10 mi
7:53 AM48 °FMore clouds than sun.No wind80%30.36 "Hg10 mi
6:53 AM49 °FPassing clouds.No wind80%30.36 "Hg10 mi
5:53 AM48 °FMostly cloudy.3 mph83%30.35 "Hg10 mi
4:53 AM48 °FOvercast.5 mph80%30.34 "Hg10 mi
3:53 AM48 °FOvercast.6 mph80%30.34 "Hg10 mi
2:53 AM49 °FOvercast.5 mph77%30.33 "Hg10 mi
1:53 AM49 °FOvercast.5 mph84%30.32 "Hg10 mi
12:53 AM50 °FOvercast.No wind83%30.30 "Hg7 mi
11:53 PM
Jan 27
50 °FMostly cloudy.No wind83%30.28 "Hg8 mi
10:53 PM50 °FMostly cloudy.No wind83%30.27 "Hg10 mi
9:53 PM51 °FMostly cloudy.6 mph80%30.24 "Hg10 mi
8:53 PM51 °FFog.6 mph86%30.22 "Hg4 mi
7:53 PM53 °FFog.No wind83%30.19 "Hg4 mi
6:53 PM53 °FFog.No wind86%30.16 "Hg4 mi
5:53 PM55 °FMostly cloudy.No wind80%30.14 "Hg3 mi
4:53 PM54 °FMore clouds than sun.3 mph83%30.13 "Hg7 mi
3:53 PM54 °FMore clouds than sun.5 mph83%30.12 "Hg5 mi
2:53 PM53 °FFog.5 mph86%30.11 "Hg2 mi
Weather by CustomWeather, © 2014

See weather overviewHow to use our weather pages